Change the Weather History Date:

Sunday, October 23, 2011

  Actual Average Record
Temperature  
Mean Temperature 52 °F -  
Max Temperature 68 °F 59 °F 81 °F (1963)
Min Temperature 37 °F 39 °F 20 °F (1981)
Degree Days  
Heating Degree Days 12    
Growing Degree Days 2 (Base 50)    
Moisture  
Dew Point 36 °F    
Average Humidity 57    
Maximum Humidity 76    
Minimum Humidity 28    
Precipitation  
Precipitation 0.00 in - - ()
Sea Level Pressure  
Sea Level Pressure 29.90 in    
Wind  
Wind Speed 7 mph (SSW)    
Max Wind Speed 20 mph    
Max Gust Speed 28 mph    
Visibility 10 miles    
Events Rain    
Averages and records for this station are not official NWS values.
T = Trace of Precipitation, MM = Missing Value Source: NWS Daily Summary

Daily Weather History Graph

Daily Weather History Graph

Search for Another Location

Airport or City:

Trip Planner

Search our weather history database for the weather conditions in past years. The results will help you decide how hot, cold, wet, or windy it might be!

Date:

Astronomy

Oct. 23, 2011 Rise Set
Actual Time 7:33 AM CDT 6:15 PM CDT
Civil Twilight 7:04 AM CDT 6:44 PM CDT
Nautical Twilight 6:31 AM CDT 7:17 PM CDT
Astronomical Twilight 5:58 AM CDT 7:50 PM CDT
Moon 3:35 AM CDT (10/23) 4:10 PM CDT (10/23)
Length of Visible Light 11h 39m
Length of Day
10h 41m
Waning Crescent, 14% of the Moon is Illuminated
Oct 23
Waning Crescent
Oct 26
New
Nov 2
First Quarter
Nov 10
Full
Nov 18
Last Quarter

Hourly Weather History & Observations

Time (CDT) Temp. Windchill Dew Point Humidity Pressure Visibility Wind Dir Wind Speed Gust Speed Precip Events Conditions
12:15 AM 42.8 °F 41.1 °F 28.4 °F 57% 29.99 in 10.0 mi East 3.5 mph - N/A   Scattered Clouds
12:35 AM 41.0 °F 39.0 °F 28.4 °F 61% 29.99 in 10.0 mi ESE 3.5 mph - N/A   Scattered Clouds
12:55 AM 42.8 °F 41.1 °F 30.2 °F 61% 29.99 in 10.0 mi ESE 3.5 mph - N/A   Mostly Cloudy
1:15 AM 41.0 °F 39.0 °F 30.2 °F 65% 29.99 in 10.0 mi SE 3.5 mph - N/A   Scattered Clouds
1:35 AM 41.0 °F 39.0 °F 28.4 °F 61% 29.98 in 10.0 mi ESE 3.5 mph - N/A   Clear
1:55 AM 41.0 °F 36.4 °F 28.4 °F 61% 29.97 in 10.0 mi SE 6.9 mph - N/A   Clear
2:15 AM 39.2 °F 35.9 °F 30.2 °F 70% 29.98 in 10.0 mi SSE 4.6 mph - N/A   Clear
2:35 AM 39.2 °F 37.0 °F 28.4 °F 65% 29.98 in 10.0 mi SSE 3.5 mph - N/A   Clear
2:55 AM 37.4 °F 33.8 °F 28.4 °F 70% 29.98 in 10.0 mi South 4.6 mph - N/A   Clear
3:15 AM 37.4 °F 32.8 °F 28.4 °F 70% 29.98 in 10.0 mi South 5.8 mph - N/A   Clear
3:35 AM 39.2 °F 35.9 °F 30.2 °F 70% 29.97 in 10.0 mi South 4.6 mph - N/A   Clear
3:55 AM 39.2 °F 35.9 °F 30.2 °F 70% 29.96 in 10.0 mi SSE 4.6 mph - N/A   Clear
4:15 AM 39.2 °F 35.0 °F 30.2 °F 70% 29.96 in 10.0 mi South 5.8 mph - N/A   Clear
4:35 AM 39.2 °F 35.0 °F 30.2 °F 70% 29.96 in 10.0 mi SSE 5.8 mph - N/A   Clear
4:55 AM 39.2 °F 35.9 °F 30.2 °F 70% 29.95 in 10.0 mi SSE 4.6 mph - N/A   Scattered Clouds
5:15 AM 41.0 °F 37.1 °F 32.0 °F 70% 29.96 in 10.0 mi South 5.8 mph - N/A   Mostly Cloudy
5:35 AM 39.2 °F 34.2 °F 30.2 °F 70% 29.95 in 10.0 mi SSE 6.9 mph - N/A   Scattered Clouds
5:55 AM 42.8 °F 37.5 °F 32.0 °F 66% 29.94 in 10.0 mi SSE 9.2 mph - N/A   Scattered Clouds
6:15 AM 42.8 °F 38.0 °F 32.0 °F 66% 29.94 in 10.0 mi South 8.1 mph - N/A   Overcast
6:35 AM 41.0 °F 37.1 °F 32.0 °F 70% 29.95 in 10.0 mi South 5.8 mph - N/A   Overcast
6:55 AM 41.0 °F 36.4 °F 33.8 °F 76% 29.94 in 10.0 mi South 6.9 mph - N/A   Mostly Cloudy
7:15 AM 42.8 °F 38.6 °F 33.8 °F 70% 29.93 in 10.0 mi SSE 6.9 mph - N/A Rain Rain
7:35 AM 42.8 °F 41.1 °F 33.8 °F 70% 29.93 in 10.0 mi SSE 3.5 mph - N/A Rain Light Rain
7:55 AM 41.0 °F 37.1 °F 33.8 °F 76% 29.93 in 10.0 mi SE 5.8 mph - N/A   Mostly Cloudy
8:15 AM 42.8 °F 40.1 °F 35.6 °F 76% 29.93 in 10.0 mi South 4.6 mph - N/A   Mostly Cloudy
8:35 AM 44.6 °F 42.2 °F 35.6 °F 71% 29.93 in 10.0 mi South 4.6 mph - N/A   Overcast
8:55 AM 44.6 °F 42.2 °F 35.6 °F 71% 29.93 in 10.0 mi South 4.6 mph - N/A   Mostly Cloudy
9:15 AM 46.4 °F 42.9 °F 35.6 °F 66% 29.93 in 10.0 mi South 6.9 mph - N/A   Mostly Cloudy
9:55 AM 50.0 °F - 37.4 °F 62% 29.92 in 10.0 mi SSW 6.9 mph - N/A   Scattered Clouds
10:15 AM 53.6 °F - 39.2 °F 58% 29.91 in 10.0 mi SW 5.8 mph - N/A   Mostly Cloudy
10:35 AM 55.4 °F - 42.8 °F 63% 29.90 in 10.0 mi SSW 10.4 mph - N/A   Mostly Cloudy
10:55 AM 57.2 °F - 42.8 °F 59% 29.90 in 10.0 mi SSW 10.4 mph - N/A   Scattered Clouds
11:15 AM 59.0 °F - 44.6 °F 59% 29.89 in 10.0 mi SSW 12.7 mph 16.1 mph N/A   Clear
11:35 AM 60.8 °F - 44.6 °F 55% 29.88 in 10.0 mi SW 15.0 mph 19.6 mph N/A   Clear
11:55 AM 62.6 °F - 42.8 °F 48% 29.87 in 10.0 mi SW 12.7 mph 19.6 mph N/A   Clear
12:15 PM 62.6 °F - 42.8 °F 48% 29.86 in 10.0 mi WSW 15.0 mph 19.6 mph N/A   Clear
12:35 PM 64.4 °F - 41.0 °F 42% 29.86 in 10.0 mi SW 18.4 mph 24.2 mph N/A   Clear
12:55 PM 66.2 °F - 39.2 °F 37% 29.84 in 10.0 mi SW 19.6 mph 23.0 mph N/A   Clear
1:15 PM 64.4 °F - 39.2 °F 40% 29.85 in 10.0 mi SW 15.0 mph - N/A   Clear
1:35 PM 64.4 °F - 39.2 °F 40% 29.85 in 10.0 mi WSW 18.4 mph 23.0 mph N/A   Clear
1:55 PM 64.4 °F - 39.2 °F 40% 29.84 in 10.0 mi WSW 11.5 mph - N/A   Mostly Cloudy
2:15 PM 62.6 °F - 41.0 °F 45% 29.84 in 10.0 mi WSW 9.2 mph - N/A   Overcast
2:35 PM 64.4 °F - 41.0 °F 42% 29.83 in 10.0 mi WSW 12.7 mph - N/A   Scattered Clouds
2:55 PM 64.4 °F - 39.2 °F 40% 29.83 in 10.0 mi WSW 8.1 mph - N/A   Scattered Clouds
3:15 PM 64.4 °F - 39.2 °F 40% 29.82 in 10.0 mi WSW 6.9 mph - N/A Rain Light Rain
3:35 PM 64.4 °F - 39.2 °F 40% 29.82 in 10.0 mi WSW 6.9 mph - N/A   Mostly Cloudy
3:55 PM 66.2 °F - 39.2 °F 37% 29.81 in 10.0 mi WSW 6.9 mph - N/A   Scattered Clouds
4:15 PM 66.2 °F - 35.6 °F 32% 29.81 in 10.0 mi SW 9.2 mph - N/A   Scattered Clouds
4:35 PM 66.2 °F - 37.4 °F 35% 29.80 in 10.0 mi SW 9.2 mph - N/A   Mostly Cloudy
4:55 PM 68.0 °F - 33.8 °F 28% 29.80 in 10.0 mi SW 9.2 mph - N/A   Scattered Clouds
5:15 PM 66.2 °F - 35.6 °F 32% 29.79 in 10.0 mi SW 8.1 mph - N/A   Scattered Clouds
5:35 PM 64.4 °F - 37.4 °F 37% 29.79 in 10.0 mi SW 6.9 mph - N/A   Scattered Clouds
5:55 PM 62.6 °F - 37.4 °F 39% 29.79 in 10.0 mi WSW 5.8 mph - N/A   Mostly Cloudy
6:35 PM 60.8 °F - 39.2 °F 45% 29.82 in 10.0 mi NNW 18.4 mph 27.6 mph N/A   Mostly Cloudy
6:55 PM 57.2 °F - 42.8 °F 59% 29.83 in 10.0 mi NNW 13.8 mph - N/A   Scattered Clouds
7:15 PM 57.2 °F - 42.8 °F 59% 29.85 in 10.0 mi NNW 10.4 mph - N/A   Clear
7:35 PM 57.2 °F - 42.8 °F 59% 29.85 in 10.0 mi NW 8.1 mph - N/A   Clear
7:55 PM 55.4 °F - 42.8 °F 63% 29.86 in 10.0 mi NW 9.2 mph - N/A   Clear
8:15 PM 55.4 °F - 41.0 °F 58% 29.87 in 10.0 mi NW 10.4 mph - N/A   Clear
8:35 PM 53.6 °F - 42.8 °F 67% 29.88 in 10.0 mi NNW 13.8 mph 19.6 mph N/A   Clear
8:55 PM 51.8 °F - 42.8 °F 71% 29.89 in 10.0 mi NNW 11.5 mph - N/A   Clear
9:35 PM 50.0 °F - 41.0 °F 71% 29.92 in 10.0 mi NNW 8.1 mph - N/A   Clear
9:55 PM 48.2 °F - 41.0 °F 76% 29.93 in 10.0 mi NNW 8.1 mph - N/A   Clear
10:35 PM 48.2 °F - 39.2 °F 71% 29.94 in 10.0 mi NNW 9.2 mph - N/A   Clear
10:55 PM 46.4 °F 42.9 °F 39.2 °F 76% 29.95 in 10.0 mi NW 6.9 mph - N/A   Clear
11:15 PM 46.4 °F 42.9 °F 39.2 °F 76% 29.95 in 10.0 mi NW 6.9 mph - N/A   Clear
11:35 PM 44.6 °F 43.1 °F 39.2 °F 81% 29.96 in 10.0 mi NW 3.5 mph - N/A   Clear
11:55 PM 44.6 °F 43.1 °F 37.4 °F 76% 29.96 in 10.0 mi NW 3.5 mph - N/A   Clear